INTELSAT 19 (IS-19) (38356 NORAD) Tracking and Keplerian Element Data

This shows tracking and keplerian element data for the satellite.

Feedback or suggestion? Click here.




ElementValue
Catalog38356
NameINTELSAT 19 (IS-19)
Epoch Orbit2403
Epoch Day349.30572118
Epoch Year2018
RAAN35.4345
Inclination0.0219
Eccentricity0.0002927
Argument of Perigee226.5795
Mean Anonmoly97.967
Mean Motion1.00271785
Decay Rate-4.4E-07
L11 38356U 12030A 18349.30572118 -.00000044 00000-0 00000+0 0 9991
L22 38356 0.0219 35.4345 0002927 226.5795 97.9670 1.00271785 24037

Live tracking and technical data element details for INTELSAT 19 (IS-19) (NORAD 38356). INTELSAT 19 (IS-19) can be tracked NOW for your location showing map with azimuth and elevation plus other details from your city location.

Track the satellite on the map from your city or location and see movement details for azimuth, elevation, latitude, longitude, range, height, and movement on the map or in text.







IsCatalogInMostPopularTable: catalog: 38356, numindb: 72
Update: records affected: 1



GetName: 38356 INTELSAT 19 (IS-19)

Hit Count: updated at: Sun, 16 Dec 2018 10:31:34 GMT